SCP
0 0 0 0 0 0 0 0 0 0 0 0 0 0 0 0 0 0 0 0 0 0 0 0 0 0 0 0 0 0 0 0 0 0 0 0 0 0 0 0 0 0 0
0 0 0 0 0 0 0 0 0 0 0 0 0 0 0 0 0 0 0 0 0 0 0 0 0 0 0 0 0 0 0 0 0 0 0 0 0 0 0 0 0 0 0
0 0 0 0 0 0 0 0 0 0 0 0 0 0 0 0 0 0 0 0 0 0 0 0 0 0 0 0 0 0 0 0 0 0 0 0 0 0 0 0 0 0 0
0 0 0 0 0 0 0 0 0 0 0 0 0 0 0 0 0 0 0 0 0 0 0 0 0 0 0 0 0 0 0 0 0 0 0 0 0 0 0 0 0 0 0
0 0 0 0 -0 -0 0 0 0 0 0 0 0 0 0 0 0 0 0 0 0 0 0 0 0 0 0 0 0 0 0 0 0 0 0 0 0 0 0 0 0 0 0
0 0 0 -0 -0 -0 0 0 0 0 0 0 0 0 0 0 0 0 0 0 0 0 0 0 0 0 0 0 0 0 0 0 0 0 0 0 0 0 0 0 0 0 0
0 0 0 0 0 0 0 0 0 0 0 0 0 0 0 0 0 0 0 0 0 0 0 0 0 0 0 0 0 0 0 0 0 0 0 0 0 0 0 0 0 0 0
0 0 0 0 -0 -0 0 0 0 0 0 0 0 0 0 0 0 0 0 0 0 0 0 0 0 0 0 0 0 0 0 0 0 0 0 0 0 0 0 0 0 0 0
0 -0 -0 -0 -0 -0 -0 0 0 0 0 0 0 0 0 0 0 0 0 0 0 0 0 0 0 0 0 0 0 0 0 0 0 0 0 0 0 0 0 0 0 0 0
-0 -0 -0 -0 -0 -0 -0 0 0 0 0 0 0 0 0 0 0 0 0 0 0 0 0 0 0 0 0 0 0 0 0 0 0 0 0 0 0 0 0 0 0 0 0
0 0 -0 -0 0 0 0 0 0 0 0 0 0 0 0 0 0 0 0 0 0 0 0 0 0 0 0 0 0 0 0 0 0 0 0 0 0 0 0 0 0 0 0
0 0 0 0 0 0 0 0 0 -0 0 0 0 0 0 0 0 0 0 0 0 0 0 0 0 0 0 0 0 0 0 0 0 0 0 0 0 0 0 0 0 0 0
0 0 0 0 0 0 0 0 0 0 0 -0 0 0 0 0 0 0 0 0 0 0 0 0 0 0 0 0 0 0 0 0 0 0 0 0 0 0 0 0 0 0 0
0 0 0 0 0 0 0 0 0 0 0 0 0 0 0 0 0 0 0 0 0 0 0 0 0 0 0 0 0 0 0 0 0 0 0 0 0 0 0 0 0 0 0
0 0 0 0 0 0 0 0 0 0 0 0 0 0 0 0 0 0 0 0 0 0 0 0 0 0 0 0 0 0 0 0 0 0 0 0 0 0 0 0 0 0 0
0 0 0 0 0 0 0 0 0 0 0 0 0 0 0 0 0 0 0 0 0 0 0 0 0 0 0 0 0 0 0 0 0 0 0 0 0 0 0 0 0 0 0
0 0 0 -0 0 0 0 0 0 0 0 0 0 0 0 0 0 0 0 0 0 0 0 0 0 0 0 0 0 0 0 0 0 0 0 0 0 0 0 0 0 0 0
0 -0 -0 0 0 0 0 0 0 0 0 0 0 0 0 0 0 0 0 0 0 0 0 0 0 0 0 0 0 0 0 0 0 0 0 0 0 0 0 0 0 0 0
-0 -0 -0 -0 -0 -0 -0 -0 0 0 0 0 0 0 0 0 0 0 0 0 0 0 0 0 0 0 0 0 0 0 0 0 0 0 0 0 0 0 0 0 0 0 0
-0 -0 -0 -0 -0 -0 -0 -0 -0 -0 -0 -0 0 0 0 0 0 0 0 0 0 0 0 0 0 0 0 0 0 0 0 0 0 0 0 0 0 0 0 0 0 0 0
-0 -0 -0 -0 -0 -0 -0 -0 -0 0 -0 -0 -0 -0 -0 0 0 0 0 0 0 0 0 0 0 0 0 0 0 0 0 0 0 0 0 0 0 0 0 0 0 0 0
0 0 0 -0 -0 -0 -0 -0 -0 -0 -0 0 0 -0 -0 -0 0 0 0 0 0 0 0 0 0 0 0 0 0 0 0 0 0 0 0 0 0 0 0 0 0 0 0
0 0 0 0 0 -0 -0 -0 -0 -0 -0 -0 -0 0 -0 -0 0 0 0 0 0 0 0 0 0 0 0 0 0 0 0 0 0 0 0 0 0 0 0 0 0 0 0
0 0 0 0 0 0 0 -0 -0 -0 -0 -0 -0 -0 -0 -0 0 0 0 0 0 0 0 0 0 0 0 0 0 0 0 0 0 0 0 0 0 0 0 0 0 0 0
0 0 0 0 0 0 0 0 -0 -0 -0 -0 -0 -0 -0 0 0 0 0 0 0 0 0 0 0 0 0 0 0 0 0 0 0 0 0 0 0 0 0 0 0 0 0
0 0 0 0 0 0 0 0 0 -0 -0 -0 -0 -0 -0 0 0 0 0 0 0 0 0 0 0 0 0 0 0 0 0 0 0 0 0 0 0 0 0 0 0 0 0
Wind_Speed_500mb
105 95 86 76 69 65 70 84 81 82 86 91 98 101 103 97 94 92 89 87 85 83 81 76 72 67 61 54 47 45 41 35 30 27 23 19 19 15 16 17 4 5 7
93 89 82 76 69 61 58 64 77 83 86 91 95 103 104 101 97 96 96 93 92 88 85 81 77 71 66 61 56 51 44 39 34 27 23 13 14 23 25 25 22 14 9
83 79 71 72 63 59 58 59 66 78 85 92 98 104 105 103 105 108 101 99 97 93 91 85 79 74 69 65 59 54 49 43 38 32 21 10 11 13 20 29 29 21 17
58 62 61 63 63 52 47 48 55 67 81 91 98 105 110 113 111 107 101 101 99 97 94 90 85 79 74 70 65 61 56 50 45 36 31 28 27 18 12 20 24 21 26
40 44 54 67 67 58 52 51 56 64 78 86 91 99 107 110 109 104 102 102 98 97 95 91 87 84 79 75 72 67 61 57 52 45 37 33 32 32 31 26 25 25 27
28 46 64 74 80 61 44 44 57 66 72 81 87 91 98 109 110 105 99 97 97 98 95 93 91 87 84 80 75 69 67 63 57 51 46 40 36 34 35 34 32 30 27
39 62 75 77 76 79 62 51 51 56 66 76 81 85 90 100 105 102 98 94 93 99 99 97 97 95 89 83 78 76 73 70 64 56 51 45 42 40 38 37 35 34 30
40 66 74 79 69 77 69 52 51 52 51 55 64 73 80 88 93 97 98 95 89 86 92 95 98 94 90 85 82 80 75 72 68 62 58 52 47 43 40 39 36 33 32
74 73 68 70 64 70 61 47 46 41 41 44 46 53 67 79 86 94 97 94 89 83 85 88 95 93 91 87 84 83 80 76 72 69 62 58 53 48 45 42 40 37 29
84 87 67 61 64 59 51 43 44 47 42 43 48 53 60 68 81 87 94 94 89 87 86 86 88 95 93 90 88 88 83 81 77 74 70 64 59 53 50 46 43 40 38
69 55 66 55 45 37 38 49 53 53 51 56 61 65 67 72 78 86 90 92 91 92 91 90 89 90 94 95 94 92 86 85 83 81 78 71 65 59 54 50 46 44 45
57 55 53 55 52 53 44 43 47 47 46 55 61 68 76 80 78 82 86 91 97 96 94 92 93 94 93 98 101 100 94 91 90 88 85 79 71 64 59 54 50 47 48
52 55 59 66 67 65 65 55 43 44 49 53 53 56 61 70 80 81 86 90 95 103 102 100 99 98 99 101 106 104 100 94 90 93 90 82 77 71 64 59 54 51 50
60 65 68 73 74 77 78 72 65 55 54 51 57 61 59 59 64 76 82 91 94 97 104 104 104 101 103 103 111 109 106 98 95 95 92 88 82 75 67 62 58 55 52
56 59 64 75 81 81 82 85 84 76 71 65 59 58 63 59 59 61 67 81 90 96 100 99 105 105 109 112 116 115 108 103 103 100 97 92 86 76 70 67 62 57 53
42 57 66 71 77 80 79 81 88 88 85 80 73 66 60 55 62 61 64 71 78 90 94 102 101 108 112 117 119 116 112 109 108 106 102 96 87 81 76 70 64 59 54
51 48 59 65 72 78 84 88 87 88 86 84 80 74 66 60 54 55 60 70 72 79 90 97 104 104 110 117 118 118 114 111 112 111 106 100 92 84 77 72 66 61 58
63 66 68 69 69 71 78 85 85 90 91 88 87 84 81 68 63 61 55 58 64 70 77 87 98 101 109 111 114 117 113 112 114 114 108 102 93 84 79 71 68 61 51
60 59 61 65 70 74 77 87 90 91 93 93 91 83 85 86 71 63 65 55 60 63 71 80 87 93 103 105 111 113 118 116 116 110 103 94 89 81 76 72 70 62 55
66 64 67 69 72 76 81 88 96 100 102 101 102 100 83 83 83 69 58 56 55 59 67 73 79 81 89 93 99 108 116 110 111 105 102 93 85 76 77 75 69 63 54
66 70 72 76 81 81 86 95 100 105 107 108 107 103 99 82 74 77 70 57 54 51 58 61 71 76 81 74 88 98 109 104 106 107 102 94 85 79 73 72 66 56 43
70 69 74 82 84 88 91 101 104 104 109 113 113 106 101 95 79 69 70 69 59 57 50 55 64 69 66 61 75 86 99 94 94 96 95 87 85 76 76 61 54 44 37
77 79 82 89 97 101 98 106 114 107 113 117 116 115 109 102 91 77 71 67 67 65 61 55 59 64 60 59 71 84 88 86 90 91 82 80 76 73 58 51 50 51 46
89 87 89 99 111 109 109 111 116 113 112 114 121 114 111 105 89 86 77 73 68 69 73 71 63 62 65 65 76 90 84 78 78 70 74 75 77 76 62 59 59 50 44
95 84 88 101 116 115 117 118 118 114 115 113 114 115 105 101 94 78 82 83 73 68 72 78 78 72 72 74 78 87 95 95 86 75 74 77 80 75 70 66 59 52 43
97 97 98 98 112 112 121 117 112 106 104 109 106 103 96 93 89 80 78 82 76 67 69 73 77 77 68 62 63 81 93 94 88 74 88 93 87 83 75 63 58 48 44
Wind_Direction_500mb
287 289 291 293 292 286 272 261 257 251 241 239 238 236 236 235 234 233 233 233 232 231 231 230 229 231 232 235 237 242 248 257 266 276 282 287 285 255 232 216 196 288 257
288 294 298 298 297 296 284 269 258 251 246 242 241 238 237 236 237 236 231 229 229 230 232 231 231 231 231 231 235 240 246 252 258 262 274 267 252 248 229 223 248 271 243
290 299 310 312 310 307 301 284 265 252 247 243 240 236 235 235 233 232 231 229 229 228 229 230 232 232 233 234 238 240 243 246 250 254 250 240 228 187 211 244 251 237 241
296 313 327 329 327 323 309 289 270 260 252 246 242 238 236 233 236 236 234 231 230 230 230 229 228 230 232 233 235 237 238 240 244 247 251 252 247 236 248 243 254 230 280
340 357 359 355 338 320 313 298 272 255 251 247 244 242 238 237 237 236 235 232 230 230 231 230 230 230 231 232 233 235 237 240 242 244 246 245 246 248 243 255 253 252 273
15 17 9 1 357 331 302 296 280 262 252 250 244 244 240 239 237 234 235 234 232 231 230 231 231 232 233 232 233 236 236 238 241 240 243 246 244 250 250 251 261 269 281
28 8 2 354 349 344 325 295 279 270 257 250 247 246 242 240 241 240 239 236 234 232 230 231 230 231 232 233 233 233 236 239 239 241 245 246 248 251 253 256 264 272 279
359 351 355 348 348 344 332 317 287 275 270 263 258 255 250 247 245 244 242 243 242 240 237 234 233 233 234 234 234 236 237 236 237 239 241 245 246 250 253 254 256 263 273
327 333 337 336 343 342 328 328 317 301 288 277 268 263 257 250 246 246 245 245 246 245 242 239 237 235 234 235 236 238 238 238 238 238 239 243 246 248 250 253 257 258 260
327 330 334 346 343 336 335 342 348 334 315 294 281 271 263 257 253 248 247 248 248 248 245 243 239 236 234 233 234 236 237 237 238 238 238 240 245 248 251 253 255 260 256
345 341 335 347 341 328 323 323 325 315 308 305 296 286 275 260 253 252 252 250 249 249 248 245 242 238 234 232 233 234 235 236 237 237 238 240 243 245 249 252 255 258 260
10 8 6 1 360 0 352 334 329 326 316 307 300 293 287 283 276 270 262 256 252 251 248 247 244 241 238 236 234 234 232 232 234 237 236 237 238 241 246 249 252 254 258
0 356 356 359 357 354 355 352 346 336 328 318 302 294 291 285 280 277 270 263 260 254 249 246 243 242 240 238 236 235 234 233 235 237 236 236 237 240 242 245 248 251 254
5 3 358 355 352 351 349 350 349 349 343 333 323 310 299 292 286 282 275 270 264 258 254 250 247 245 243 240 238 235 234 233 234 235 235 235 235 237 240 242 245 246 250
357 354 353 352 350 347 342 342 342 340 343 344 340 329 312 295 285 282 279 273 268 264 258 251 248 246 243 241 237 234 234 234 233 232 232 233 233 235 236 238 240 244 248
346 349 347 349 348 343 340 336 336 336 334 336 339 339 328 306 292 284 279 274 273 268 262 257 252 249 246 244 240 237 234 233 232 231 230 231 231 232 234 237 238 243 248
337 335 339 345 343 337 335 333 331 333 333 330 331 333 337 332 317 291 278 272 268 267 263 259 254 252 250 245 241 238 235 234 232 229 228 228 229 229 231 236 238 239 243
335 336 338 337 335 331 332 329 330 329 328 328 326 322 325 332 333 323 296 282 274 266 264 261 257 253 250 246 241 240 237 233 232 231 229 227 226 226 229 231 233 235 238
326 327 328 328 329 333 334 331 330 327 324 324 323 322 320 319 322 327 321 301 282 270 262 258 255 252 250 245 240 237 235 230 228 228 228 227 227 226 227 229 231 230 234
317 316 319 320 324 328 328 328 329 329 326 322 318 318 318 313 310 313 312 311 293 277 267 261 256 254 251 246 241 236 234 228 226 224 224 226 225 224 227 227 227 230 233
308 311 312 314 317 322 323 323 324 324 323 319 314 312 310 306 300 298 303 298 291 291 275 268 262 256 248 243 238 231 234 229 226 223 221 221 223 220 224 230 228 232 233
302 304 305 307 309 313 314 315 316 320 318 316 310 307 305 304 301 296 288 291 285 278 278 264 258 252 247 239 227 213 229 228 228 226 225 225 221 219 223 217 225 224 229
302 303 304 304 305 309 309 309 311 312 311 309 307 303 300 299 297 294 292 282 282 274 266 260 254 251 244 228 217 207 221 228 226 225 226 222 218 224 204 207 212 226 233
304 305 303 303 304 306 305 304 306 306 305 302 301 299 298 296 295 292 284 281 272 271 268 262 255 250 242 228 215 205 213 221 230 221 223 220 212 209 209 209 221 226 224
302 300 296 297 300 302 301 302 302 303 301 300 297 296 295 294 293 287 282 277 276 270 268 270 263 253 246 238 225 214 205 215 219 217 210 201 202 203 210 214 217 218 225
301 298 296 295 297 299 300 300 300 300 298 296 294 294 294 291 289 286 279 277 273 277 270 266 263 262 260 252 241 223 207 214 214 208 205 204 205 208 210 208 210 213 222
Wind_Speed_850mb
105 95 86 76 69 65 70 84 81 82 86 91 98 101 103 97 94 92 89 87 85 83 81 76 72 67 61 54 47 45 41 35 30 27 23 19 19 15 16 17 4 5 7
93 89 82 76 69 61 58 64 77 83 86 91 95 103 104 101 97 96 96 93 92 88 85 81 77 71 66 61 56 51 44 39 34 27 23 13 14 23 25 25 22 14 9
83 79 71 72 63 59 58 59 66 78 85 92 98 104 105 103 105 108 101 99 97 93 91 85 79 74 69 65 59 54 49 43 38 32 21 10 11 13 20 29 29 21 17
58 62 61 63 63 52 47 48 55 67 81 91 98 105 110 113 111 107 101 101 99 97 94 90 85 79 74 70 65 61 56 50 45 36 31 28 27 18 12 20 24 21 26
40 44 54 67 67 58 52 51 56 64 78 86 91 99 107 110 109 104 102 102 98 97 95 91 87 84 79 75 72 67 61 57 52 45 37 33 32 32 31 26 25 25 27
28 46 64 74 80 61 44 44 57 66 72 81 87 91 98 109 110 105 99 97 97 98 95 93 91 87 84 80 75 69 67 63 57 51 46 40 36 34 35 34 32 30 27
39 62 75 77 76 79 62 51 51 56 66 76 81 85 90 100 105 102 98 94 93 99 99 97 97 95 89 83 78 76 73 70 64 56 51 45 42 40 38 37 35 34 30
40 66 74 79 69 77 69 52 51 52 51 55 64 73 80 88 93 97 98 95 89 86 92 95 98 94 90 85 82 80 75 72 68 62 58 52 47 43 40 39 36 33 32
74 73 68 70 64 70 61 47 46 41 41 44 46 53 67 79 86 94 97 94 89 83 85 88 95 93 91 87 84 83 80 76 72 69 62 58 53 48 45 42 40 37 29
84 87 67 61 64 59 51 43 44 47 42 43 48 53 60 68 81 87 94 94 89 87 86 86 88 95 93 90 88 88 83 81 77 74 70 64 59 53 50 46 43 40 38
69 55 66 55 45 37 38 49 53 53 51 56 61 65 67 72 78 86 90 92 91 92 91 90 89 90 94 95 94 92 86 85 83 81 78 71 65 59 54 50 46 44 45
57 55 53 55 52 53 44 43 47 47 46 55 61 68 76 80 78 82 86 91 97 96 94 92 93 94 93 98 101 100 94 91 90 88 85 79 71 64 59 54 50 47 48
52 55 59 66 67 65 65 55 43 44 49 53 53 56 61 70 80 81 86 90 95 103 102 100 99 98 99 101 106 104 100 94 90 93 90 82 77 71 64 59 54 51 50
60 65 68 73 74 77 78 72 65 55 54 51 57 61 59 59 64 76 82 91 94 97 104 104 104 101 103 103 111 109 106 98 95 95 92 88 82 75 67 62 58 55 52
56 59 64 75 81 81 82 85 84 76 71 65 59 58 63 59 59 61 67 81 90 96 100 99 105 105 109 112 116 115 108 103 103 100 97 92 86 76 70 67 62 57 53
42 57 66 71 77 80 79 81 88 88 85 80 73 66 60 55 62 61 64 71 78 90 94 102 101 108 112 117 119 116 112 109 108 106 102 96 87 81 76 70 64 59 54
51 48 59 65 72 78 84 88 87 88 86 84 80 74 66 60 54 55 60 70 72 79 90 97 104 104 110 117 118 118 114 111 112 111 106 100 92 84 77 72 66 61 58
63 66 68 69 69 71 78 85 85 90 91 88 87 84 81 68 63 61 55 58 64 70 77 87 98 101 109 111 114 117 113 112 114 114 108 102 93 84 79 71 68 61 51
60 59 61 65 70 74 77 87 90 91 93 93 91 83 85 86 71 63 65 55 60 63 71 80 87 93 103 105 111 113 118 116 116 110 103 94 89 81 76 72 70 62 55
66 64 67 69 72 76 81 88 96 100 102 101 102 100 83 83 83 69 58 56 55 59 67 73 79 81 89 93 99 108 116 110 111 105 102 93 85 76 77 75 69 63 54
66 70 72 76 81 81 86 95 100 105 107 108 107 103 99 82 74 77 70 57 54 51 58 61 71 76 81 74 88 98 109 104 106 107 102 94 85 79 73 72 66 56 43
70 69 74 82 84 88 91 101 104 104 109 113 113 106 101 95 79 69 70 69 59 57 50 55 64 69 66 61 75 86 99 94 94 96 95 87 85 76 76 61 54 44 37
77 79 82 89 97 101 98 106 114 107 113 117 116 115 109 102 91 77 71 67 67 65 61 55 59 64 60 59 71 84 88 86 90 91 82 80 76 73 58 51 50 51 46
89 87 89 99 111 109 109 111 116 113 112 114 121 114 111 105 89 86 77 73 68 69 73 71 63 62 65 65 76 90 84 78 78 70 74 75 77 76 62 59 59 50 44
95 84 88 101 116 115 117 118 118 114 115 113 114 115 105 101 94 78 82 83 73 68 72 78 78 72 72 74 78 87 95 95 86 75 74 77 80 75 70 66 59 52 43
97 97 98 98 112 112 121 117 112 106 104 109 106 103 96 93 89 80 78 82 76 67 69 73 77 77 68 62 63 81 93 94 88 74 88 93 87 83 75 63 58 48 44
Wind_Direction_850mb
287 289 291 293 292 286 272 261 257 251 241 239 238 236 236 235 234 233 233 233 232 231 231 230 229 231 232 235 237 242 248 257 266 276 282 287 285 255 232 216 196 288 257
288 294 298 298 297 296 284 269 258 251 246 242 241 238 237 236 237 236 231 229 229 230 232 231 231 231 231 231 235 240 246 252 258 262 274 267 252 248 229 223 248 271 243
290 299 310 312 310 307 301 284 265 252 247 243 240 236 235 235 233 232 231 229 229 228 229 230 232 232 233 234 238 240 243 246 250 254 250 240 228 187 211 244 251 237 241
296 313 327 329 327 323 309 289 270 260 252 246 242 238 236 233 236 236 234 231 230 230 230 229 228 230 232 233 235 237 238 240 244 247 251 252 247 236 248 243 254 230 280
340 357 359 355 338 320 313 298 272 255 251 247 244 242 238 237 237 236 235 232 230 230 231 230 230 230 231 232 233 235 237 240 242 244 246 245 246 248 243 255 253 252 273
15 17 9 1 357 331 302 296 280 262 252 250 244 244 240 239 237 234 235 234 232 231 230 231 231 232 233 232 233 236 236 238 241 240 243 246 244 250 250 251 261 269 281
28 8 2 354 349 344 325 295 279 270 257 250 247 246 242 240 241 240 239 236 234 232 230 231 230 231 232 233 233 233 236 239 239 241 245 246 248 251 253 256 264 272 279
359 351 355 348 348 344 332 317 287 275 270 263 258 255 250 247 245 244 242 243 242 240 237 234 233 233 234 234 234 236 237 236 237 239 241 245 246 250 253 254 256 263 273
327 333 337 336 343 342 328 328 317 301 288 277 268 263 257 250 246 246 245 245 246 245 242 239 237 235 234 235 236 238 238 238 238 238 239 243 246 248 250 253 257 258 260
327 330 334 346 343 336 335 342 348 334 315 294 281 271 263 257 253 248 247 248 248 248 245 243 239 236 234 233 234 236 237 237 238 238 238 240 245 248 251 253 255 260 256
345 341 335 347 341 328 323 323 325 315 308 305 296 286 275 260 253 252 252 250 249 249 248 245 242 238 234 232 233 234 235 236 237 237 238 240 243 245 249 252 255 258 260
10 8 6 1 360 0 352 334 329 326 316 307 300 293 287 283 276 270 262 256 252 251 248 247 244 241 238 236 234 234 232 232 234 237 236 237 238 241 246 249 252 254 258
0 356 356 359 357 354 355 352 346 336 328 318 302 294 291 285 280 277 270 263 260 254 249 246 243 242 240 238 236 235 234 233 235 237 236 236 237 240 242 245 248 251 254
5 3 358 355 352 351 349 350 349 349 343 333 323 310 299 292 286 282 275 270 264 258 254 250 247 245 243 240 238 235 234 233 234 235 235 235 235 237 240 242 245 246 250
357 354 353 352 350 347 342 342 342 340 343 344 340 329 312 295 285 282 279 273 268 264 258 251 248 246 243 241 237 234 234 234 233 232 232 233 233 235 236 238 240 244 248
346 349 347 349 348 343 340 336 336 336 334 336 339 339 328 306 292 284 279 274 273 268 262 257 252 249 246 244 240 237 234 233 232 231 230 231 231 232 234 237 238 243 248
337 335 339 345 343 337 335 333 331 333 333 330 331 333 337 332 317 291 278 272 268 267 263 259 254 252 250 245 241 238 235 234 232 229 228 228 229 229 231 236 238 239 243
335 336 338 337 335 331 332 329 330 329 328 328 326 322 325 332 333 323 296 282 274 266 264 261 257 253 250 246 241 240 237 233 232 231 229 227 226 226 229 231 233 235 238
326 327 328 328 329 333 334 331 330 327 324 324 323 322 320 319 322 327 321 301 282 270 262 258 255 252 250 245 240 237 235 230 228 228 228 227 227 226 227 229 231 230 234
317 316 319 320 324 328 328 328 329 329 326 322 318 318 318 313 310 313 312 311 293 277 267 261 256 254 251 246 241 236 234 228 226 224 224 226 225 224 227 227 227 230 233
308 311 312 314 317 322 323 323 324 324 323 319 314 312 310 306 300 298 303 298 291 291 275 268 262 256 248 243 238 231 234 229 226 223 221 221 223 220 224 230 228 232 233
302 304 305 307 309 313 314 315 316 320 318 316 310 307 305 304 301 296 288 291 285 278 278 264 258 252 247 239 227 213 229 228 228 226 225 225 221 219 223 217 225 224 229
302 303 304 304 305 309 309 309 311 312 311 309 307 303 300 299 297 294 292 282 282 274 266 260 254 251 244 228 217 207 221 228 226 225 226 222 218 224 204 207 212 226 233
304 305 303 303 304 306 305 304 306 306 305 302 301 299 298 296 295 292 284 281 272 271 268 262 255 250 242 228 215 205 213 221 230 221 223 220 212 209 209 209 221 226 224
302 300 296 297 300 302 301 302 302 303 301 300 297 296 295 294 293 287 282 277 276 270 268 270 263 253 246 238 225 214 205 215 219 217 210 201 202 203 210 214 217 218 225
301 298 296 295 297 299 300 300 300 300 298 296 294 294 294 291 289 286 279 277 273 277 270 266 263 262 260 252 241 223 207 214 214 208 205 204 205 208 210 208 210 213 222